time_stamp(utc),avg(mph),gust(mph),direction(deg),12m_air_temp(f),sonic_u(cm/s),sonic_v(cm/s),sonic_w(cm/s),pressure,2m_air_temp(f),pyranometer(W/m^2)
"2021-05-18 00:02:39+00",9.4,10.4,,61.7,-119,-388,-11,1025.53,61.2,0
"2021-05-18 00:07:39+00",8.8,10.8,,61.6,-95,-365,1,1025.53,61,0
"2021-05-18 00:12:39+00",9.1,12.1,,61.4,-117,-364,3,1025.5,60.7,0
"2021-05-18 00:17:39+00",9.3,11.3,,61.2,-113,-395,3,1025.53,60.5,0
"2021-05-18 00:22:39+00",10.0,12.0,,61.1,-105,-413,-1,1025.62,60.3,0
"2021-05-18 00:27:39+00",10.4,11.4,,61,-124,-429,-5,1025.57,60.1,0
"2021-05-18 00:32:39+00",10.1,11.1,,61.1,-186,-404,6,1025.61,60.1,0
"2021-05-18 00:37:39+00",9.0,11.0,,61.2,-171,-360,1,1025.68,60,0
"2021-05-18 00:42:39+00",6.9,8.9,,61,-183,-263,2,1025.85,59.9,0
"2021-05-18 00:47:39+00",7.7,8.7,,61,-225,-252,4,1025.97,59.8,0
"2021-05-18 00:52:39+00",8.2,9.2,,61,-251,-255,1,1026.03,59.7,0
"2021-05-18 00:57:39+00",8.1,9.1,,61.1,-225,-299,2,1026.14,59.6,0
"2021-05-18 01:02:39+00",8.4,9.4,,61.1,-234,-297,1,1026.13,59.5,0
"2021-05-18 01:07:39+00",8.3,10.3,,61.3,-227,-295,6,1026.16,59.5,0
"2021-05-18 01:12:39+00",8.6,8.6,,61.3,-250,-299,6,1026.12,59.6,0
"2021-05-18 01:17:39+00",8.9,9.9,,61.3,-271,-266,2,1026.22,59.6,0
"2021-05-18 01:22:39+00",7.8,8.8,,61.3,-244,-227,6,1026.36,59.5,0
"2021-05-18 01:27:39+00",6.8,7.8,,61.2,-242,-181,5,1026.42,59.2,0
"2021-05-18 01:32:39+00",8.7,9.7,,61.2,-305,-239,9,1026.35,59.1,0
"2021-05-18 01:37:39+00",9.4,10.4,,61.2,-275,-296,6,1026.34,59,0
"2021-05-18 01:42:39+00",8.2,9.2,,61.3,-219,-312,5,1026.27,59.1,0
"2021-05-18 01:47:39+00",8.8,9.8,,61.3,-215,-336,5,1026.27,59.4,0
"2021-05-18 01:52:39+00",8.3,9.3,,61.2,-233,-295,5,1026.28,59.4,0
"2021-05-18 01:57:39+00",7.9,8.9,,61,-213,-294,3,1026.37,59.4,0
"2021-05-18 02:02:39+00",7.8,8.8,,61,-208,-287,1,1026.39,59.4,0
"2021-05-18 02:07:39+00",8.1,9.1,,60.9,-223,-293,-3,1026.32,59.3,0
"2021-05-18 02:12:39+00",8.2,9.2,,60.8,-276,-230,7,1026.39,59.3,0
"2021-05-18 02:17:39+00",7.2,7.2,,60.8,-259,-191,5,1026.42,59.2,0
"2021-05-18 02:22:39+00",10.0,11.0,,61.1,-330,-294,5,1026.49,59.1,0
"2021-05-18 02:27:39+00",9.2,10.2,,61.3,-302,-264,5,1026.4,59.3,0
"2021-05-18 02:32:39+00",7.3,8.3,,61,-290,-133,11,1026.46,59.3,0
"2021-05-18 02:37:39+00",7.9,8.9,,60.6,-282,-211,8,1026.39,59.2,0
"2021-05-18 02:42:39+00",8.8,10.8,,60.8,-251,-300,3,1026.3,59.1,0
"2021-05-18 02:47:39+00",8.9,9.9,,61,-255,-310,5,1026.3,59.3,0
"2021-05-18 02:52:39+00",8.9,9.9,,60.9,-232,-334,1,1026.29,59.4,0
"2021-05-18 02:57:39+00",9.0,11.0,,60.8,-162,-359,-4,1026.28,59.4,0
"2021-05-18 03:02:39+00",9.8,10.8,,60.7,-172,-395,-2,1026.33,59.4,0
"2021-05-18 03:07:39+00",10.6,11.6,,60.6,-197,-427,-5,1026.28,59.3,0
"2021-05-18 03:12:39+00",9.4,11.4,,60.5,-193,-377,2,1026.32,59.3,0
"2021-05-18 03:17:39+00",9.0,10.0,,60.3,-187,-354,-6,1026.3,59.2,0
"2021-05-18 03:22:39+00",7.7,8.7,,60.2,-175,-304,5,1026.35,59.1,0
"2021-05-18 03:27:39+00",8.0,9.0,,60.2,-199,-305,-1,1026.38,58.9,0
"2021-05-18 03:32:39+00",7.1,8.1,,60.1,-165,-279,6,1026.46,58.8,0
"2021-05-18 03:37:39+00",7.1,8.1,,60.1,-194,-245,4,1026.45,58.7,0
"2021-05-18 03:42:39+00",7.0,8.0,,60.1,-186,-261,5,1026.44,58.7,0
"2021-05-18 03:47:39+00",6.5,7.5,,60,-166,-240,0,1026.47,58.6,0
"2021-05-18 03:52:39+00",5.5,7.5,,59.9,-143,-191,3,1026.44,58.4,0
"2021-05-18 03:57:39+00",6.3,7.3,,59.5,-97,-249,-5,1026.56,58.1,0
"2021-05-18 04:02:39+00",6.0,7.0,,59.4,-154,-221,-6,1026.57,57.9,0
"2021-05-18 04:07:39+00",6.1,7.1,,59.5,-181,-199,-3,1026.64,57.7,0
"2021-05-18 04:12:39+00",6.5,7.5,,59.6,-203,-192,3,1026.65,57.5,0
"2021-05-18 04:17:39+00",6.9,7.9,,59.6,-248,-185,6,1026.61,57.3,0
"2021-05-18 04:22:39+00",7.7,8.7,,59.7,-322,-191,9,1026.61,57.3,0
"2021-05-18 04:27:39+00",8.4,9.4,,59.7,-306,-225,7,1026.57,57.5,0
"2021-05-18 04:32:39+00",8.3,9.3,,59.7,-355,-194,14,1026.56,57.7,0
"2021-05-18 04:37:39+00",7.1,7.1,,59.4,-297,-77,13,1026.48,57.8,0
"2021-05-18 04:42:39+00",6.6,7.6,,58.9,-282,-51,8,1026.48,57.8,0
"2021-05-18 04:47:39+00",6.3,6.3,,58.6,-267,-58,5,1026.45,57.6,0
"2021-05-18 04:52:39+00",6.8,6.8,,58.3,-300,-24,5,1026.44,57.4,0
"2021-05-18 04:57:39+00",6.2,6.2,,58.4,-255,-72,4,1026.47,57.2,0
"2021-05-18 05:02:39+00",5.1,6.1,,58.3,-214,-123,3,1026.42,57,0
"2021-05-18 05:07:39+00",5.7,5.7,,58.3,-230,-110,1,1026.44,56.7,0
"2021-05-18 05:12:39+00",5.7,5.7,,58.3,-233,-118,2,1026.49,56.5,0
"2021-05-18 05:17:39+00",7.3,8.3,,58.2,-298,-142,4,1026.49,56.4,0
"2021-05-18 05:22:39+00",8.5,9.5,,58.4,-354,-176,8,1026.43,56.3,0
"2021-05-18 05:27:39+00",8.9,9.9,,58.4,-363,-166,6,1026.45,56.3,0
"2021-05-18 05:32:39+00",8.3,9.3,,58.6,-347,-185,11,1026.38,56.4,0
"2021-05-18 05:37:39+00",8.0,9.0,,58.5,-311,-130,11,1026.33,56.4,0
"2021-05-18 05:42:39+00",7.3,8.3,,58.3,-315,-55,6,1026.36,56.5,0
"2021-05-18 05:47:39+00",8.0,9.0,,58.1,-335,-95,7,1026.39,56.4,0
"2021-05-18 05:52:39+00",8.0,8.0,,58.1,-308,-120,8,1026.38,56.4,0
"2021-05-18 05:57:39+00",8.2,9.2,,58,-322,-137,5,1026.41,56.3,0
"2021-05-18 06:02:39+00",7.4,7.4,,58,-312,-164,7,1026.34,56.1,0
"2021-05-18 06:07:39+00",7.0,8.0,,58.1,-272,-179,5,1026.36,56,0
"2021-05-18 06:12:39+00",6.0,7.0,,57.9,-228,-150,6,1026.27,55.9,0
"2021-05-18 06:17:39+00",5.6,6.6,,57.8,-208,-144,8,1026.38,55.8,0
"2021-05-18 06:22:39+00",6.4,7.4,,57.9,-236,-164,13,1026.4,55.7,0
"2021-05-18 06:27:39+00",6.8,7.8,,58,-208,-196,2,1026.38,55.6,0
"2021-05-18 06:32:39+00",6.9,7.9,,58.1,-226,-193,1,1026.33,55.6,0
"2021-05-18 06:37:39+00",6.3,6.3,,58,-208,-170,4,1026.33,55.6,0
"2021-05-18 06:42:39+00",6.7,7.7,,58.1,-241,-178,4,1026.26,55.5,0
"2021-05-18 06:47:39+00",6.5,7.5,,58.1,-194,-193,1,1026.31,55.4,0
"2021-05-18 06:52:39+00",5.7,5.7,,58,-165,-174,3,1026.27,55.3,0
"2021-05-18 06:57:39+00",6.4,6.4,,57.8,-208,-179,-1,1026.29,55.3,0
"2021-05-18 07:02:39+00",6.8,6.8,,58.1,-218,-196,2,1026.3,55.2,0
"2021-05-18 07:07:39+00",6.2,6.2,,58,-204,-176,3,1026.31,55.2,0
"2021-05-18 07:12:39+00",6.5,7.5,,58.1,-205,-188,12,1026.24,55.2,0
"2021-05-18 07:17:39+00",7.0,7.0,,58.1,-234,-199,0,1026.32,55.3,0
"2021-05-18 07:22:39+00",7.7,8.7,,58.2,-266,-210,13,1026.37,55.2,0
"2021-05-18 07:27:39+00",6.4,7.4,,57.9,-208,-185,3,1026.48,55.2,0
"2021-05-18 07:32:39+00",4.8,4.8,,57.6,-133,-173,2,1026.49,55.1,0
"2021-05-18 07:37:39+00",7.5,8.5,,57.6,-232,-240,12,1026.52,55,0
"2021-05-18 07:42:39+00",6.7,7.7,,58,-238,-182,16,1026.51,55.2,0
"2021-05-18 07:47:39+00",6.8,7.8,,57.9,-206,-214,9,1026.52,55.1,0
"2021-05-18 07:52:39+00",6.3,7.3,,58,-210,-182,6,1026.63,55.2,0
"2021-05-18 07:57:39+00",6.7,7.7,,58.1,-200,-198,7,1026.57,55.3,0
"2021-05-18 08:02:39+00",8.8,9.8,,58.3,-271,-263,4,1026.62,55.6,0
"2021-05-18 08:07:39+00",8.0,8.0,,58.4,-276,-223,9,1026.53,55.8,0
"2021-05-18 08:12:39+00",7.2,8.2,,58.3,-224,-220,6,1026.62,55.9,0
"2021-05-18 08:17:39+00",7.4,8.4,,58.3,-262,-201,9,1026.62,56,0
"2021-05-18 08:22:39+00",8.2,9.2,,58.3,-237,-267,4,1026.54,56.2,0
"2021-05-18 08:27:39+00",7.7,8.7,,58.4,-221,-260,8,1026.67,56.3,0
"2021-05-18 08:32:39+00",7.1,8.1,,58.3,-222,-205,6,1026.68,56.3,0
"2021-05-18 08:37:39+00",8.4,9.4,,58.3,-255,-258,-1,1026.62,56.4,0
"2021-05-18 08:42:39+00",7.5,8.5,,58.2,-248,-210,2,1026.62,56.4,0
"2021-05-18 08:47:39+00",5.6,6.6,,58.1,-238,-138,8,1026.78,56.3,0
"2021-05-18 08:52:39+00",6.0,7.0,,58.1,-237,-78,9,1026.81,56.2,0
"2021-05-18 08:57:39+00",9.4,10.4,,58.1,-378,-126,13,1026.78,55.9,0
"2021-05-18 09:02:39+00",9.7,10.7,,58.1,-394,-127,10,1026.75,56,0
"2021-05-18 09:07:39+00",10.4,11.4,,57.8,-403,-157,11,1026.77,56,0
"2021-05-18 09:12:39+00",10.9,11.9,,57.6,-441,-172,6,1026.88,55.9,0
"2021-05-18 09:17:39+00",10.4,11.4,,57.4,-423,-204,15,1026.86,55.8,0
"2021-05-18 09:22:39+00",8.9,9.9,,57.3,-383,-203,9,1026.93,55.7,0
"2021-05-18 09:27:39+00",7.8,8.8,,57.2,-328,-185,11,1026.92,55.6,0
"2021-05-18 09:32:39+00",8.9,9.9,,57.4,-373,-190,16,1026.86,55.4,0
"2021-05-18 09:37:39+00",8.2,9.2,,57.4,-335,-163,11,1026.86,55.4,0
"2021-05-18 09:42:39+00",9.9,10.9,,57.4,-394,-180,12,1026.84,55.3,0
"2021-05-18 09:47:39+00",9.3,10.3,,57.3,-380,-185,7,1026.82,55.2,0
"2021-05-18 09:52:39+00",8.6,9.6,,57.2,-372,-204,11,1026.84,55.1,0
"2021-05-18 10:02:39+00",8.0,9.0,,57.2,-334,-202,5,1026.8,55.3,0
"2021-05-18 10:07:39+00",8.8,9.8,,57.2,-356,-230,14,1026.97,55.5,0
"2021-05-18 10:12:39+00",9.1,10.1,,57.3,-378,-203,12,1027.01,55.8,0
"2021-05-18 10:17:39+00",8.6,9.6,,57.3,-345,-219,9,1027.11,55.9,0
"2021-05-18 10:22:39+00",8.6,9.6,,57.4,-296,-241,5,1027.04,56.2,0
"2021-05-18 10:27:39+00",10.2,11.2,,57.5,-384,-267,15,1026.93,56.6,0
"2021-05-18 10:32:39+00",9.5,10.5,,57.6,-377,-227,8,1027.05,57,0
"2021-05-18 10:37:39+00",8.9,10.9,,57.8,-356,-179,29,1027.1,57.4,0
"2021-05-18 10:42:39+00",10.4,12.4,,57.9,-418,-161,25,1027.15,57.8,0
"2021-05-18 10:47:39+00",11.6,12.6,,58,-476,-135,15,1027.18,58.1,0
"2021-05-18 10:52:39+00",9.7,11.7,,58,-405,-173,18,1027.27,58.3,0
"2021-05-18 10:57:39+00",9.1,11.1,,58,-368,-199,17,1027.25,58.5,0
"2021-05-18 11:02:39+00",9.0,10.0,,58.3,-362,-226,36,1027.25,58.8,0
"2021-05-18 11:07:39+00",9.0,11.0,,58.4,-379,-206,4,1027.4,59.1,0
"2021-05-18 11:12:39+00",11.0,13.0,,58.6,-454,-194,16,1027.34,59.6,0
"2021-05-18 11:17:39+00",11.3,13.3,,58.8,-447,-189,19,1027.36,59.9,0
"2021-05-18 11:22:39+00",12.1,14.1,,58.9,-495,-213,12,1027.44,60.3,0
"2021-05-18 11:27:39+00",10.7,13.7,,59.2,-439,-163,26,1027.43,60.7,0
"2021-05-18 11:32:39+00",11.3,13.3,,59.4,-448,-168,24,1027.43,61,0
"2021-05-18 11:37:39+00",10.4,12.4,,59.5,-427,-156,47,1027.46,61.4,0
"2021-05-18 11:42:39+00",11.3,12.3,,59.8,-470,-139,6,1027.43,61.8,0
"2021-05-18 11:47:39+00",10.8,11.8,,60.1,-430,-172,20,1027.5,62.1,0
"2021-05-18 11:52:39+00",9.6,11.6,,60.5,-396,-159,18,1027.5,62.6,0
"2021-05-18 11:57:39+00",10.4,12.4,,60.7,-429,-221,0,1027.46,63,0
"2021-05-18 12:02:39+00",10.0,12.0,,61.1,-407,-217,42,1027.46,63.4,0
"2021-05-18 12:07:39+00",11.1,12.1,,61.2,-459,-130,9,1027.55,63.7,0
"2021-05-18 12:12:39+00",11.5,12.5,,61.4,-457,-173,14,1027.68,64.1,0
"2021-05-18 12:17:39+00",9.9,11.9,,61.8,-396,-145,36,1027.69,64.5,0
"2021-05-18 12:22:39+00",9.0,10.0,,62.1,-362,-102,46,1027.81,64.9,0
"2021-05-18 12:27:39+00",9.2,11.2,,62.6,-380,-118,22,1027.9,65.5,0
"2021-05-18 12:32:39+00",9.4,11.4,,62.8,-417,-19,58,1027.91,65.9,0
"2021-05-18 12:37:39+00",11.2,12.2,,62.8,-486,-83,10,1027.94,66,0
"2021-05-18 12:42:39+00",9.9,11.9,,62.9,-436,11,-2,1027.95,66.2,0
"2021-05-18 12:47:39+00",8.5,10.5,,63.2,-383,-8,48,1027.96,66.7,0
"2021-05-18 12:52:39+00",10.2,11.2,,63.4,-434,173,12,1027.88,67.1,0
"2021-05-18 12:57:39+00",11.6,12.6,,63.5,-520,116,21,1027.87,67.4,0
"2021-05-18 13:02:39+00",9.3,11.3,,63.8,-416,77,34,1027.9,67.7,0
"2021-05-18 13:07:39+00",9.4,10.4,,64,-410,36,27,1027.92,68,0
"2021-05-18 13:12:39+00",9.0,10.0,,64.3,-386,97,14,1027.95,68.5,0
"2021-05-18 13:17:39+00",8.7,9.7,,64.5,-391,-11,44,1028.07,68.9,0
"2021-05-18 13:22:39+00",9.4,10.4,,64.6,-411,100,14,1028.05,69.4,0
"2021-05-18 13:27:39+00",9.8,10.8,,65,-449,56,32,1028.11,69.4,0
"2021-05-18 13:32:39+00",10.0,11.0,,65.1,-445,79,23,1028.11,69.5,0
"2021-05-18 13:37:39+00",11.1,12.1,,65.7,-484,125,18,1028.05,69.8,0
"2021-05-18 13:42:39+00",10.0,11.0,,65.8,-449,94,14,1028.08,70,0
"2021-05-18 13:47:39+00",9.4,9.4,,66.1,-416,103,24,1028.03,70.4,0
"2021-05-18 13:52:39+00",8.8,9.8,,66.3,-380,122,36,1028.08,70.7,0
"2021-05-18 13:57:39+00",8.6,9.6,,66.7,-358,108,5,1028.19,71.1,0
"2021-05-18 14:02:39+00",8.5,9.5,,66.8,-360,133,-5,1028.3,71.5,0
"2021-05-18 14:07:39+00",8.2,10.2,,67.3,-376,35,24,1028.19,72,0
"2021-05-18 14:12:39+00",7.1,8.1,,67.5,-307,50,15,1028.13,72.4,0
"2021-05-18 14:17:39+00",9.0,10.0,,67.8,-395,91,2,1028.1,72.8,0
"2021-05-18 14:22:39+00",8.3,9.3,,68.2,-369,72,52,1028.05,73.1,0
"2021-05-18 14:27:39+00",8.2,9.2,,68.4,-338,120,17,1028.06,73.3,0
"2021-05-18 14:32:39+00",7.6,9.6,,68.7,-329,90,37,1028.02,73.6,0
"2021-05-18 14:37:39+00",8.4,11.4,,68.9,-352,130,-1,1028.04,73.8,0
"2021-05-18 14:42:39+00",9.4,10.4,,69.1,-398,157,18,1028,73.8,0
"2021-05-18 14:47:39+00",8.4,9.4,,69.2,-368,68,-2,1027.96,74,0
"2021-05-18 14:52:39+00",8.4,9.4,,69.3,-365,83,0,1027.91,74.2,0
"2021-05-18 14:57:39+00",8.8,9.8,,69.7,-383,62,32,1027.95,74.5,0
"2021-05-18 15:02:39+00",8.5,9.5,,69.9,-356,120,25,1027.93,74.6,0
"2021-05-18 15:07:39+00",9.0,11.0,,70.2,-406,26,-4,1027.94,74.9,0
"2021-05-18 15:12:39+00",7.8,8.8,,70.4,-349,46,27,1027.93,75.4,0
"2021-05-18 15:17:39+00",8.5,10.5,,70.7,-365,60,7,1027.97,75.7,0
"2021-05-18 15:22:39+00",5.1,6.1,,70.7,-211,-16,37,1027.95,76.2,0
"2021-05-18 15:27:39+00",7.0,8.0,,70.8,-286,-101,-7,1027.92,76.9,0
"2021-05-18 15:32:39+00",5.3,6.3,,71,-216,-62,46,1027.83,77.6,0
"2021-05-18 15:37:39+00",9.4,11.4,,71.2,-413,93,7,1027.79,77.6,0
"2021-05-18 15:42:39+00",3.5,7.5,,71.3,-158,-25,8,1027.77,77.7,0
"2021-05-18 15:47:39+00",3.4,5.4,,71.5,-11,-114,7,1027.79,77.9,0
"2021-05-18 15:52:39+00",9.2,11.2,,71.2,125,-384,-14,1027.75,75.3,0
"2021-05-18 15:57:39+00",8.3,10.3,,71.6,15,-349,12,1027.81,74.4,0
"2021-05-18 16:02:39+00",9.2,11.2,,71.3,136,-348,24,1027.79,73.9,0
"2021-05-18 16:07:39+00",8.8,11.8,,72.2,83,-355,16,1027.8,74.6,0
"2021-05-18 16:12:39+00",6.6,9.6,,72.7,-4,-279,-11,1027.75,74.7,0
"2021-05-18 16:17:39+00",7.5,9.5,,72.7,30,-300,17,1027.72,74.9,0
"2021-05-18 16:22:39+00",6.7,10.7,,72.5,12,-268,48,1027.66,75.2,0
"2021-05-18 16:27:39+00",9.5,10.5,,72.4,-391,-237,19,1027.53,75.1,0
"2021-05-18 16:32:39+00",8.2,11.2,,72.5,-41,-333,5,1027.44,75.8,0
"2021-05-18 16:37:39+00",10.1,12.1,,71.9,78,-399,-12,1027.35,74.7,0
"2021-05-18 16:42:39+00",8.0,10.0,,72,76,-335,3,1027.21,74.3,0
"2021-05-18 16:47:39+00",8.3,10.3,,72.9,102,-319,27,1027.27,75,0
"2021-05-18 16:52:39+00",8.3,11.3,,73,-78,-341,15,1027.27,75.5,0
"2021-05-18 16:57:39+00",7.7,9.7,,72.2,0,-320,6,1027.18,74.8,0
"2021-05-18 17:02:39+00",11.0,14.0,,72.7,-122,-469,12,1027.06,74.8,0
"2021-05-18 17:07:39+00",10.6,13.6,,72.7,28,-435,0,1027.05,74.7,0
"2021-05-18 17:12:39+00",11.6,16.6,,73.1,-74,-516,-14,1026.97,75.2,0
"2021-05-18 17:17:39+00",13.2,17.2,,72.6,53,-563,-33,1026.88,74.8,0
"2021-05-18 17:22:39+00",9.3,13.3,,72.1,8,-382,23,1026.94,74.2,0
"2021-05-18 17:27:39+00",13.5,18.5,,72.6,-58,-578,-8,1026.82,74.8,0
"2021-05-18 17:32:39+00",10.3,14.3,,73,-81,-441,43,1026.81,75.2,0
"2021-05-18 17:37:39+00",14.2,19.2,,72.8,-148,-567,-13,1026.79,75.3,0
"2021-05-18 17:42:39+00",12.8,15.8,,73.5,-83,-551,-16,1026.7,75.7,0
"2021-05-18 17:47:39+00",10.9,14.9,,73.6,1,-465,1,1026.63,75.5,0
"2021-05-18 17:52:39+00",12.3,15.3,,72.4,37,-528,-21,1026.64,74.5,0
"2021-05-18 17:57:39+00",10.9,14.9,,73.1,-56,-461,23,1026.59,74.8,0
"2021-05-18 18:02:39+00",11.0,16.0,,73.7,-25,-465,-5,1026.55,75.4,0
"2021-05-18 18:07:39+00",11.9,14.9,,73.9,-72,-488,-4,1026.44,75.8,0
"2021-05-18 18:12:39+00",13.1,17.1,,73.4,-99,-546,19,1026.36,75.8,0
"2021-05-18 18:17:39+00",14.9,17.9,,73.3,-88,-620,-14,1026.3,75.7,0
"2021-05-18 18:22:39+00",12.6,17.6,,73.4,-52,-514,9,1026.19,75.7,0
"2021-05-18 18:27:39+00",15.6,20.6,,73,-103,-643,9,1026.23,75.4,0
"2021-05-18 18:32:39+00",13.4,17.4,,73.4,-117,-579,8,1026.12,75.6,0
"2021-05-18 18:37:39+00",12.3,18.3,,73.1,-127,-502,22,1026.02,75.4,0
"2021-05-18 18:42:39+00",13.6,21.6,,73.4,-79,-603,-13,1025.99,75.4,0
"2021-05-18 18:47:39+00",19.3,24.3,,72.7,-146,-831,-11,1025.94,74.9,0
"2021-05-18 18:52:39+00",17.2,22.2,,72,-127,-717,-2,1025.87,74.2,0
"2021-05-18 18:57:39+00",16.4,21.4,,72,-120,-690,-4,1025.9,74.1,0
"2021-05-18 19:02:39+00",15.5,21.5,,71.9,-33,-639,4,1025.8,73.8,0
"2021-05-18 19:07:39+00",14.6,21.6,,72.5,-124,-663,-1,1025.77,74.2,0
"2021-05-18 19:12:39+00",17.7,22.7,,72.2,-144,-729,-5,1025.66,74.1,0
"2021-05-18 19:17:39+00",15.4,21.4,,72,-102,-629,21,1025.67,73.8,0
"2021-05-18 19:22:39+00",16.9,21.9,,72.4,-137,-740,-2,1025.62,74.1,0
"2021-05-18 19:27:39+00",17.6,20.6,,72.7,-214,-722,19,1025.59,74.6,0
"2021-05-18 19:32:39+00",16.1,24.1,,72.6,-224,-668,30,1025.55,74.6,0
"2021-05-18 19:37:39+00",13.9,18.9,,72.6,-119,-563,15,1025.55,74.6,0
"2021-05-18 19:42:39+00",16.4,20.4,,72.7,-144,-684,-8,1025.37,74.7,0
"2021-05-18 19:47:39+00",14.2,19.2,,72.5,-56,-601,-12,1025.27,74.4,0
"2021-05-18 19:52:39+00",17.5,23.5,,71.6,-120,-738,-8,1025.26,73.6,0
"2021-05-18 19:57:39+00",18.8,22.8,,71.5,-137,-759,5,1025.29,73.5,0
"2021-05-18 20:02:39+00",16.9,23.9,,70.8,-106,-700,19,1025.23,72.9,0
"2021-05-18 20:07:39+00",19.5,25.5,,70.9,-195,-809,-35,1025.15,72.7,0
"2021-05-18 20:12:39+00",22.1,26.1,,70.8,-329,-908,-4,1025.06,72.6,0
"2021-05-18 20:17:39+00",21.1,24.1,,71.4,-302,-891,9,1025.09,73.1,0
"2021-05-18 20:22:39+00",16.4,24.4,,71.7,-157,-695,-5,1024.98,73.4,0
"2021-05-18 20:27:39+00",20.7,24.7,,71.3,-277,-895,-25,1024.94,73.2,0
"2021-05-18 20:32:39+00",16.4,20.4,,70.6,-116,-708,17,1024.92,72.5,0
"2021-05-18 20:37:39+00",19.6,24.6,,69.9,-198,-840,-9,1024.83,71.8,0
"2021-05-18 20:42:39+00",20.1,24.1,,70.1,-373,-817,10,1024.84,71.9,0
"2021-05-18 20:47:39+00",18.1,22.1,,70.3,-226,-770,-20,1024.73,71.9,0
"2021-05-18 20:52:39+00",19.3,24.3,,70,-286,-812,8,1024.69,71.8,0
"2021-05-18 20:57:39+00",20.5,24.5,,70,-373,-818,10,1024.61,71.8,0
"2021-05-18 21:02:39+00",18.6,21.6,,70.5,-357,-752,26,1024.58,72,0
"2021-05-18 21:07:39+00",16.4,22.4,,70.6,-173,-710,4,1024.6,72.1,0
"2021-05-18 21:12:39+00",13.2,20.2,,70.6,-106,-565,5,1024.52,72.1,0
"2021-05-18 21:17:39+00",18.5,22.5,,70.5,-247,-766,-5,1024.45,71.9,0
"2021-05-18 21:22:39+00",17.1,20.1,,70.1,-155,-718,6,1024.52,71.8,0
"2021-05-18 21:27:39+00",18.2,23.2,,69.6,-230,-771,-20,1024.39,71.3,0
"2021-05-18 21:32:39+00",19.9,22.9,,69.1,-301,-819,-7,1024.46,70.7,0
"2021-05-18 21:37:39+00",19.8,23.8,,69,-351,-816,-1,1024.53,70.4,0
"2021-05-18 21:42:39+00",17.0,23.0,,69,-241,-717,13,1024.52,70.4,0
"2021-05-18 21:47:39+00",17.3,20.3,,68.7,-328,-712,-5,1024.59,70.3,0
"2021-05-18 21:52:39+00",17.1,25.1,,68.8,-291,-706,5,1024.56,70.2,0
"2021-05-18 21:57:39+00",18.4,22.4,,68.6,-315,-749,12,1024.61,70.1,0
"2021-05-18 22:02:39+00",20.1,24.1,,68.2,-433,-802,3,1024.43,69.8,0
"2021-05-18 22:07:39+00",20.7,24.7,,68.3,-525,-802,28,1024.52,69.7,0
"2021-05-18 22:12:39+00",21.0,24.0,,68.4,-549,-807,15,1024.47,69.7,0
"2021-05-18 22:17:39+00",21.2,24.2,,68.3,-516,-840,0,1024.37,69.6,0
"2021-05-18 22:22:39+00",22.4,25.4,,68.1,-608,-840,1,1024.4,69.5,0
"2021-05-18 22:27:39+00",21.0,25.0,,67.9,-536,-808,8,1024.43,69.3,0
"2021-05-18 22:32:39+00",18.7,22.7,,67.7,-482,-738,33,1024.33,69,0
"2021-05-18 22:37:39+00",18.4,21.4,,67.6,-468,-701,21,1024.36,68.8,0
"2021-05-18 22:42:39+00",19.5,21.5,,67.6,-542,-729,3,1024.44,68.8,0
"2021-05-18 22:47:39+00",21.7,25.7,,67.3,-662,-713,0,1024.4,68.6,0
"2021-05-18 22:52:39+00",19.3,22.3,,67.1,-550,-683,32,1024.41,68.4,0
"2021-05-18 22:57:39+00",21.5,25.5,,67.2,-620,-772,9,1024.39,68.2,0
"2021-05-18 23:02:39+00",22.9,25.9,,67.1,-656,-828,-1,1024.31,68,0
"2021-05-18 23:07:39+00",19.2,22.2,,67,-527,-721,37,1024.35,67.9,0
"2021-05-18 23:12:39+00",19.3,22.3,,67,-527,-730,15,1024.28,67.8,0
"2021-05-18 23:17:39+00",17.1,20.1,,66.9,-476,-622,12,1024.29,67.6,0
"2021-05-18 23:22:39+00",17.8,19.8,,66.9,-515,-630,15,1024.31,67.5,0
"2021-05-18 23:27:39+00",17.4,21.4,,66.7,-487,-652,11,1024.27,67.2,0
"2021-05-18 23:32:39+00",17.3,19.3,,66.5,-460,-643,12,1024.24,66.9,0
"2021-05-18 23:37:39+00",17.3,21.3,,66.4,-485,-615,36,1024.28,66.6,0
"2021-05-18 23:42:39+00",18.3,22.3,,66.2,-506,-664,7,1024.35,66.3,0
"2021-05-18 23:47:39+00",19.8,21.8,,66.1,-582,-687,4,1024.43,66.1,0
"2021-05-18 23:52:39+00",15.5,19.5,,65.8,-465,-537,13,1024.43,65.7,0
"2021-05-18 23:57:39+00",16.2,18.2,,65.8,-493,-548,4,1024.57,65.5,0
